Hourly Data Report for October 07, 2015

All times are specified in Local Standard Time (LST). Add 1 hour to adjust for Daylight Saving Time where and when it is observed.

HALL BEACH A
NUNAVUT

68°46'33.000" N
81°14'33.000" W
9.10 m
2402354
71293
YUX

Download Data

Hourly Data (October 2015)
Hourly Data Report for October 7, 2015
Temp Definition
°C
Dew Point Temp Definition
°C
Rel Hum Definition
%
Wind Dir Definition
10's deg

Wind Spd Definition
km/h
Visibility Definition
km
Stn Press Definition
kPa
Hmdx Definition


Wind Chill Definition


Weather Definition


TIME
00:00 Legend Double Dagger -1.2 -1.9 95 31 13 16.1 100.33   -5 LegendNANA
01:00 Legend Double Dagger -1.2 -1.9 95 31 13 16.1 100.33   -5 LegendNANA
02:00 Legend Double Dagger -1.1 -2.1 93 31 24 16.1 100.32   -7 LegendNANA
03:00 Legend Double Dagger -1.9 -3.0 92 32 32 9.7 100.36   -9 Snow
04:00 Legend Double Dagger -2.2 -4.1 87 33 30 16.1 100.41   -9 LegendNANA
05:00 Legend Double Dagger -2.7 -6.1 78 34 28 16.1 100.42   -10 LegendNANA
06:00 Legend Double Dagger -3.0 -6.6 76 33 24 16.1 100.43   -10 LegendNANA
07:00 Legend Double Dagger -3.4 -6.5 80 32 22 16.1 100.44   -10 LegendNANA
08:00 Legend Double Dagger -3.7 -6.7 80 32 22 16.1 100.44   -10 LegendNANA
09:00 Legend Double Dagger -4.1 -6.9 81 31 22 16.1 100.46   -11 LegendNANA
10:00 Legend Double Dagger -4.0 -8.1 73 31 26 16.1 100.44   -11 LegendNANA
11:00 Legend Double Dagger -4.0 -8.4 72 32 22 16.1 100.45   -11 LegendNANA
12:00 Legend Double Dagger -4.0 -8.7 70 34 18 16.1 100.43   -10 LegendNANA
13:00 Legend Double Dagger -3.8 -8.3 71 32 18 16.1 100.44   -10 LegendNANA
14:00 Legend Double Dagger -4.0 -8.4 71 30 17 16.1 100.44   -10 LegendNANA
15:00 Legend Double Dagger -4.3 -8.1 75 30 13 16.1 100.45   -9 LegendNANA
16:00 Legend Double Dagger -5.2 -8.5 78 29 13 16.1 100.47   -10 LegendNANA
17:00 Legend Double Dagger -6.7 -9.1 83 29 15 16.1 100.48   -13 LegendNANA
18:00 Legend Double Dagger -7.5 -9.3 87 31 11 16.1 100.48   -13 LegendNANA
19:00 Legend Double Dagger -7.1 -9.7 82 28 11 16.1 100.46   -12 LegendNANA
20:00 Legend Double Dagger -8.2 -10.3 85 28 13 16.1 100.46   -14 LegendNANA
21:00 Legend Double Dagger -8.3 -10.3 86 28 13 16.1 100.44   -14 LegendNANA
22:00 Legend Double Dagger -8.5 -10.1 88 24 9 16.1 100.41   -13 LegendNANA
23:00 Legend Double Dagger -8.1 -9.3 91 24 11 16.1 100.41   -13 LegendNANA

Notes on Data Quality.

Legend

  • E = Estimated
  • M = Missing
  • NA = Not Available
  • ‡ = Partner data that is not subject to review by the National Climate Archives
Date modified: